Weather History for Ft Lauderdale, FL

Change the Weather History Date:

Monday, October 22, 2012

  Actual Average Record
Temperature  
Mean Temperature 81 °F 80 °F  
Max Temperature 85 °F 85 °F 90 °F (1959)
Min Temperature 77 °F 74 °F 47 °F (1976)
Degree Days  
Heating Degree Days 0 0  
Month to date heating degree days 0 0  
Since 1 July heating degree days 0 0  
Cooling Degree Days 16 15  
Month to date cooling degree days 364 358  
Year to date cooling degree days 4078 4070  
Growing Degree Days 30 (Base 50)    
Moisture  
Dew Point 64 °F    
Average Humidity 55    
Maximum Humidity 62    
Minimum Humidity 48    
Precipitation  
Precipitation 0.00 in 0.16 in 5.10 in (1966)
Month to date precipitation 7.32 5.30  
Year to date precipitation 58.24 54.96  
Snow  
Snow 0.00 in - - ()
Month to date snowfall 0.0  
Since 1 July snowfall 0.0  
Since 1 September snowfall 0.0  
Snow Depth 0.00 in    
Sea Level Pressure  
Sea Level Pressure 29.97 in    
Wind  
Wind Speed 14 mph (ENE)    
Max Wind Speed 22 mph    
Max Gust Speed 28 mph    
Visibility 10 miles    
Events      
T = Trace of Precipitation, MM = Missing Value Source: NWS Daily Summary

Daily Weather History Graph

Daily Weather History Graph

Search for Another Location

Airport:

Trip Planner

Search our weather history database for the weather conditions in past years. The results will help you decide how hot, cold, wet, or windy it might be!

Date:

Astronomy

Oct. 22, 2012 Rise Set
Actual Time 7:23 AM EDT 6:45 PM EDT
Civil Twilight 7:00 AM EDT 7:09 PM EDT
Nautical Twilight 6:33 AM EDT 7:36 PM EDT
Astronomical Twilight 6:06 AM EDT 8:03 PM EDT
Moon 2:16 PM EDT (10/22) 12:48 AM EDT (10/22)
Length of Visible Light 12h 09m
Length of Day
11h 22m
First Quarter, 56% of the Moon is Illuminated
Oct 22
First Quarter
Oct 29
Full
Nov 6
Last Quarter
Nov 13
New
Nov 20
First Quarter

Hourly Weather History & Observations

Time (EDT) Temp. Heat Index Dew Point Humidity Pressure Visibility Wind Dir Wind Speed Gust Speed Precip Events Conditions
12:53 AM 77.0 °F - 63.0 °F 62% 29.98 in 10.0 mi NE 12.7 mph - N/A   Partly Cloudy
1:53 AM 77.0 °F - 63.0 °F 62% 29.96 in 10.0 mi NE 8.1 mph - N/A   Scattered Clouds
2:53 AM 77.0 °F - 63.0 °F 62% 29.96 in 10.0 mi ENE 10.4 mph - N/A   Partly Cloudy
3:53 AM 77.0 °F - 63.0 °F 62% 29.95 in 10.0 mi NE 6.9 mph - N/A   Partly Cloudy
4:53 AM 77.0 °F - 63.0 °F 62% 29.95 in 10.0 mi ENE 9.2 mph - N/A   Scattered Clouds
5:53 AM 78.1 °F - 62.1 °F 58% 29.96 in 10.0 mi ENE 10.4 mph - N/A   Partly Cloudy
6:53 AM 78.1 °F - 63.0 °F 60% 29.98 in 10.0 mi ENE 11.5 mph 18.4 mph N/A   Partly Cloudy
7:53 AM 78.1 °F - 62.1 °F 58% 29.99 in 10.0 mi East 10.4 mph - N/A   Partly Cloudy
8:53 AM 81.0 °F 81.7 °F 61.0 °F 50% 30.00 in 10.0 mi ENE 12.7 mph - N/A   Partly Cloudy
9:53 AM 82.0 °F 83.4 °F 64.0 °F 54% 30.01 in 10.0 mi ENE 12.7 mph 21.9 mph N/A   Partly Cloudy
10:53 AM 84.0 °F 84.9 °F 63.0 °F 49% 30.01 in 10.0 mi NE 17.3 mph - N/A   Scattered Clouds
11:53 AM 84.0 °F 84.9 °F 63.0 °F 49% 30.00 in 10.0 mi ENE 16.1 mph 23.0 mph N/A   Partly Cloudy
12:53 PM 84.0 °F 85.8 °F 64.9 °F 53% 29.99 in 10.0 mi NE 17.3 mph 23.0 mph N/A   Partly Cloudy
1:53 PM 84.0 °F 86.5 °F 66.9 °F 56% 29.97 in 10.0 mi ENE 18.4 mph 25.3 mph N/A   Mostly Cloudy
2:53 PM 82.9 °F 84.6 °F 64.9 °F 54% 29.95 in 10.0 mi ENE 21.9 mph 27.6 mph N/A   Scattered Clouds
3:53 PM 82.9 °F 84.4 °F 64.0 °F 53% 29.95 in 9.0 mi ENE 18.4 mph 27.6 mph N/A   Mostly Cloudy
4:53 PM 82.9 °F 84.6 °F 64.9 °F 54% 29.95 in 10.0 mi ENE 16.1 mph - N/A   Scattered Clouds
5:53 PM 82.0 °F 83.8 °F 64.9 °F 56% 29.95 in 10.0 mi East 15.0 mph 25.3 mph N/A   Partly Cloudy
6:53 PM 81.0 °F 82.7 °F 64.9 °F 58% 29.96 in 10.0 mi East 16.1 mph 23.0 mph N/A   Partly Cloudy
7:53 PM 81.0 °F 82.2 °F 63.0 °F 54% 29.97 in 10.0 mi ENE 16.1 mph - N/A   Scattered Clouds
8:53 PM 80.1 °F 82.3 °F 66.9 °F 64% 29.98 in 10.0 mi ENE 13.8 mph 25.3 mph N/A   Partly Cloudy
9:53 PM 80.1 °F 82.1 °F 66.0 °F 62% 29.99 in 10.0 mi East 18.4 mph 24.2 mph N/A   Partly Cloudy
10:53 PM 79.0 °F - 64.9 °F 62% 29.99 in 10.0 mi ENE 15.0 mph 23.0 mph N/A   Scattered Clouds
11:53 PM 79.0 °F - 64.0 °F 60% 29.98 in 10.0 mi ENE 15.0 mph - N/A   Partly Cloudy